TimeEST,TemperatureF,Dew PointF,Humidity,Sea Level PressureIn,VisibilityMPH,Wind Direction,Wind SpeedMPH,Gust SpeedMPH,PrecipitationIn,Events,Conditions,WindDirDegrees,DateUTC
12:53 AM,46.9,39.0,74,30.13,8.0,Calm,Calm,-,N/A,,Overcast,0,2012-11-21 05:53:00
1:53 AM,45.0,37.9,76,30.13,8.0,Calm,Calm,-,N/A,,Partly Cloudy,0,2012-11-21 06:53:00
2:53 AM,42.1,37.9,85,30.15,7.0,Calm,Calm,-,N/A,,Clear,0,2012-11-21 07:53:00
3:53 AM,42.1,37.9,85,30.16,6.0,Calm,Calm,-,N/A,,Clear,0,2012-11-21 08:53:00
4:53 AM,39.9,37.0,89,30.17,6.0,Calm,Calm,-,N/A,,Scattered Clouds,0,2012-11-21 09:53:00
5:53 AM,37.0,35.1,93,30.19,4.0,Calm,Calm,-,N/A,,Clear,0,2012-11-21 10:53:00
6:53 AM,34.0,33.1,96,30.20,2.0,Calm,Calm,-,N/A,,Partly Cloudy,0,2012-11-21 11:53:00
7:03 AM,33.8,33.8,100,30.20,1.8,Calm,Calm,-,N/A,,Clear,0,2012-11-21 12:03:00
7:13 AM,35.6,33.8,93,30.20,2.0,Calm,Calm,-,N/A,,Partly Cloudy,0,2012-11-21 12:13:00
7:22 AM,33.8,33.8,100,30.21,1.5,Calm,Calm,-,N/A,,Scattered Clouds,0,2012-11-21 12:22:00
7:35 AM,35.6,35.6,100,30.21,0.8,Calm,Calm,-,N/A,,Scattered Clouds,0,2012-11-21 12:35:00
7:46 AM,35.6,33.8,93,30.21,1.0,Calm,Calm,-,N/A,,Partly Cloudy,0,2012-11-21 12:46:00
7:53 AM,35.1,34.0,96,30.21,1.0,Calm,Calm,-,N/A,,Clear,0,2012-11-21 12:53:00
8:32 AM,35.6,35.6,100,30.22,2.0,South,5.8,-,N/A,,Clear,170,2012-11-21 13:32:00
8:53 AM,41.0,39.0,93,30.22,2.5,Calm,Calm,-,N/A,,Clear,0,2012-11-21 13:53:00
9:02 AM,42.8,39.2,87,30.22,3.0,Calm,Calm,-,N/A,,Clear,0,2012-11-21 14:02:00
9:53 AM,48.0,41.0,77,30.22,5.0,South,3.5,-,N/A,,Haze,180,2012-11-21 14:53:00
10:53 AM,54.0,41.0,62,30.23,7.0,SSE,4.6,-,N/A,,Clear,160,2012-11-21 15:53:00
11:53 AM,57.0,39.0,51,30.22,10.0,SSW,3.5,-,N/A,,Clear,210,2012-11-21 16:53:00
12:53 PM,59.0,37.0,44,30.20,10.0,SW,6.9,-,N/A,,Clear,230,2012-11-21 17:53:00
1:53 PM,60.1,39.0,46,30.19,10.0,West,4.6,-,N/A,,Clear,260,2012-11-21 18:53:00
2:53 PM,60.1,39.9,47,30.18,8.0,West,6.9,-,N/A,,Clear,270,2012-11-21 19:53:00
3:53 PM,57.9,41.0,53,30.19,10.0,WSW,5.8,-,N/A,,Clear,250,2012-11-21 20:53:00
4:53 PM,55.0,41.0,59,30.18,8.0,WSW,3.5,-,N/A,,Clear,250,2012-11-21 21:53:00
5:53 PM,52.0,41.0,66,30.18,9.0,SSW,3.5,-,N/A,,Clear,200,2012-11-21 22:53:00
6:53 PM,44.1,37.9,79,30.19,8.0,South,3.5,-,N/A,,Clear,180,2012-11-21 23:53:00
7:53 PM,43.0,37.9,82,30.19,7.0,South,4.6,-,N/A,,Clear,170,2012-11-22 00:53:00
8:53 PM,39.0,35.1,86,30.19,6.0,South,4.6,-,N/A,,Clear,170,2012-11-22 01:53:00
9:53 PM,39.9,36.0,86,30.19,6.0,South,4.6,-,N/A,,Clear,190,2012-11-22 02:53:00
10:53 PM,42.1,37.0,82,30.19,5.0,South,3.5,-,N/A,,Haze,190,2012-11-22 03:53:00
11:53 PM,39.0,35.1,86,30.19,5.0,South,5.8,-,N/A,,Clear,170,2012-11-22 04:53:00